Location: Kuppenheim
(48.8299°N, 8.2568°E)
Time: 07:56:55
(UTC+00:00)

N. Korean satellite - Pass Details

Date: 29 November 2022
Orbit: 407 x 442 km, 97.3° (Epoch: 04 February)

Event Time Altitude Azimuth Distance (km) Brightness Sun altitude
Rises 03:37:52 0° 32° (NNE) 2,530 10.7 -31.9°
Maximum altitude 03:42:31 12° 89° (E) 1,524 9.9 -31.1°
Drops below altitude 10° 03:43:53 10° 112° (ESE) 1,631 10.0 -30.9°
Sets 03:47:05 0° 145° (SE) 2,490 10.6 -30.3°
